Showing default

INTELSAT 1-F1, 1317

Orbit data source: Space-Track

INTELSAT 1-F1, 1317 is a payload satellite owned by INTELSAT (US) in GEO that was launched on Tue, 06 Apr 1965 UTC via a THOR DELTA D launch vehicle from the Air Force Eastern Test Range (AFETR). Payload-class satellites include a variety of spacecraft equipped with specific instruments for various scientific and technological missions. These include communications satellites like Starlink; space stations such as the ISS; scientific satellites like the Hubble; Earth observation satellites from companies like Planet Labs, Umbra, and HawkEye 360; GPS; miniature CubeSats for education and research; and military/defense satellites.

Loading next visibility...
Identifier
1317, 1965-028A
Orbit
GEO
Country
Flag of UnknownUnknown / ITSO
Related business
Manufacturer
Hughes
Mission
Non-operational Civil Communications
Bus & Motor
HS-303A, STARFINDER
Mass
68 kg wet, 30 kg dry
Launch date (UTC)
1965-04-06 (60 years ago)
Launch vehicle
THOR DELTA D
Launch site
Air Force Eastern Test Range (AFETR)
Object type
Payload
Rocket body
Debris
Shape & HBR
Cyl, 0.4 m
Radar Cross Section
0.543 m², Medium (>0.1 m² and < 1m²)

Expand to show TLE details & history
Last TLE update: 1 week ago

TLE from 1 week ago
0 INTELSAT 1-F1
1 01317U 65028A   25252.19788024 -.00000285  00000-0  00000-0 0  9994
2 01317   6.4687  66.5558 0008526 135.7682 166.3985  1.00244445124350
Epoch: 2025-09-09T04:44Z
TLE epoch observation values (Epoch: 2025-09-09T04:44:56.852Z)
Latitude
-5.48506°
Longitude
-50.84144°
Altitude
35,829.724 km
Speed
3.072 km/s
True Right ascension
00h 35m 33s
True Declination
-5° 28' 46"
Sunlit
Object was in daylight at epoch
Visualization orbit readout
Latitude
Unknown
Longitude
Unknown
Altitude
Unknown
Speed
Unknown
Apparent Right ascension
Unknown
Apparent Declination
Unknown
Sunlit
N/A
Visualization observer readout
Local Sidereal Time
09:26:33
Azimuth
Unknown
Elevation
Unknown
Doppler factor
Unknown
Orbital elements
Apogee altitude
35,831.268 km
Perigee altitude
35,759.354 km
Semi-major axis
42,173.448 km
Eccentricity
0.00085
Inclination
6.4687°
RAAN
66.5558°
Arg. of periapsis
135.7682°
True anomaly
166.42145°
Mean anomaly
166.3985°
Eccentric anomaly
166.40998°
Mean motion
0.2506 °/min
Orbital period
1,436.54 mins
BSTAR
0
Loading maneuver chart data...
Computing Atmospheric mass density...
Loading historical data...
Loading historical data...
Loading historical data...
Loading historical data...
Loading historical data...
Loading historical data...
Loading historical data...
Other satellites on launch #28 in the year 1965 (1965-04-06 UTC)

Documentation

Showing up to 5 results
|